Location: Castillon
(43.0896°N, 0.2156°E)
Time: 19:24:04
(UTC+00:00)

SL-8 R/B - Pass Details

Date: 16 June 2021
Orbit: 656 x 667 km, 48.4° (Epoch: 02 August)

Event Time Altitude Azimuth Distance (km) Brightness Sun altitude
Rises 23:13:40 0° 294° (WNW) 2,989 7.6 -22.7°
Reaches altitude 10° 23:16:06 10° 287° (WNW) 2,073 6.6 -22.8°
Enters shadow 23:19:55 40° 241° (WSW) 963 4.3 -22.9°
